FW7122 Weather Reports


Display with metric or nautical units.
time (UTC)temp
F
wind
direction
speed
MPH
gust
MPH
rain 1hr
in
rain 24hr
in
rain mn
in
humidity
%
barometer
mb
20240525233822 76 360 0.0 0.0 0.00 0.00 0.00 62 1010.0
20240525233309 76 360 0.0 0.0 0.00 0.00 0.00 63 1010.1
20240525232312 76 360 0.0 0.0 0.00 0.00 0.00 62 1009.9
20240525231822 76 360 0.0 0.0 0.00 0.00 0.00 63 1009.9
20240525225817 77 360 0.0 0.0 0.00 0.00 0.00 65 1009.8
20240525225324 77 360 0.0 0.0 0.00 0.00 0.00 66 1009.7
20240525223329 77 360 0.0 0.0 0.00 0.00 0.00 66 1009.6
20240525222327 77 355 0.0 0.0 0.00 0.00 0.00 65 1009.6
20240525220820 77 355 0.0 0.0 0.00 0.00 0.00 64 1009.5
20240525215324 78 360 2.0 2.0 0.00 0.00 0.00 65 1009.4
20240525214811 78 355 0.0 0.0 0.00 0.00 0.00 64 1009.4
20240525214320 78 5 0.0 0.0 0.00 0.00 0.00 64 1009.5
20240525213320 78 5 0.0 0.0 0.00 0.00 0.00 65 1009.4
20240525212827 78 360 0.0 0.0 0.00 0.00 0.00 65 1009.4
20240525212314 78 360 0.0 0.0 0.00 0.00 0.00 64 1009.5
20240525211826 78 355 0.0 0.0 0.00 0.00 0.00 64 1009.4
20240525204320 78 360 0.0 0.0 0.00 0.00 0.00 67 1009.4
20240525203809 78 270 0.0 2.0 0.00 0.00 0.00 68 1009.5
20240525202830 78 257 0.0 0.0 0.00 0.00 0.00 67 1009.5
20240525201828 78 263 1.0 1.0 0.00 0.00 0.00 67 1009.5
20240525200329 79 269 1.0 2.0 0.00 0.00 0.00 67 1009.5
20240525195820 78 265 2.0 2.0 0.00 0.00 0.00 68 1009.5
20240525194827 78 355 0.0 0.0 0.00 0.00 0.00 67 1009.6
20240525194314 78 355 0.0 0.0 0.00 0.00 0.00 68 1009.5
20240525193822 78 360 0.0 0.0 0.00 0.00 0.00 68 1009.5
20240525193309 79 5 0.0 0.0 0.00 0.00 0.00 66 1009.4
20240525192311 79 261 0.0 1.0 0.00 0.00 0.00 67 1009.5
20240525190823 79 5 0.0 0.0 0.00 0.00 0.00 65 1009.5
20240525183824 80 360 0.0 4.0 0.00 0.00 0.00 65 1009.5
20240525182823 80 252 0.0 0.0 0.00 0.00 0.00 65 1009.5
20240525182310 79 5 0.0 2.0 0.00 0.00 0.00 66 1009.5
20240525181820 79 17 2.0 2.0 0.00 0.00 0.00 66 1009.4
20240525181330 79 355 0.0 7.0 0.00 0.00 0.00 66 1009.4
20240525180324 79 355 0.0 0.0 0.00 0.00 0.00 64 1009.5
20240525175811 80 360 0.0 0.0 0.00 0.00 0.00 65 1009.5
20240525174814 80 360 0.0 0.0 0.00 0.00 0.00 64 1009.4
20240525174324 80 257 0.0 0.0 0.00 0.00 0.00 65 1009.4
20240525172326 81 188 0.0 0.0 0.00 0.00 0.00 61 1009.3
20240525171326 81 234 0.0 2.0 0.00 0.00 0.00 59 1009.3
20240525170815 81 215 2.0 2.0 0.00 0.00 0.00 63 1009.5
20240525164319 79 246 0.0 5.0 0.00 0.00 0.00 66 1009.6
20240525163812 79 263 5.0 5.0 0.00 0.00 0.00 68 1009.7
20240525162812 78 275 0.0 0.0 0.00 0.00 0.00 67 1009.9
20240525161813 77 204 1.0 1.0 0.00 0.00 0.00 71 1010.0
20240525161322 77 254 0.0 1.0 0.00 0.00 0.00 71 1010.0
20240525160314 76 250 0.0 0.0 0.00 0.00 0.00 70 1009.9
20240525155822 76 238 0.0 0.0 0.00 0.00 0.00 70 1010.1
20240525154312 75 234 0.0 2.0 0.00 0.00 0.00 71 1010.2
20240525150313 75 250 0.0 0.0 0.00 0.00 0.00 72 1009.9
20240525145823 75 250 0.0 0.0 0.00 0.00 0.00 73 1009.8
20240525145330 75 250 0.0 0.0 0.00 0.00 0.00 74 1009.8
20240525144329 75 250 0.0 2.0 0.00 0.00 0.00 72 1009.8
20240525142325 76 236 0.0 5.0 0.00 0.00 0.00 72 1009.9
20240525141815 76 267 5.0 6.0 0.00 0.00 0.00 72 1009.8
20240525141325 76 256 6.0 6.0 0.00 0.00 0.00 73 1009.8
20240525140320 75 273 4.0 7.0 0.00 0.00 0.00 73 1009.8
20240525135828 75 265 7.0 7.0 0.00 0.00 0.00 73 1009.8
20240525135315 75 259 2.0 12.0 0.00 0.00 0.00 73 1009.7
20240525134823 75 286 12.0 12.0 0.00 0.00 0.00 77 1009.7
20240525134309 75 254 4.0 4.0 0.00 0.00 0.00 77 1009.6
20240525132309 74 229 2.0 2.0 0.00 0.00 0.00 77 1009.5
20240525131823 74 221 0.0 9.0 0.00 0.00 0.00 78 1009.3
20240525131310 74 213 9.0 9.0 0.00 0.00 0.00 78 1009.4
20240525130322 73 207 8.0 8.0 0.00 0.00 0.00 80 1009.5
20240525124814 71 229 7.0 7.0 0.00 0.00 0.00 83 1009.6
20240525124323 71 201 3.0 3.0 0.00 0.00 0.00 83 1009.7
20240525123829 70 191 0.0 2.0 0.00 0.00 0.00 83 1009.6
20240525122827 70 202 0.0 0.0 0.00 0.00 0.00 84 1009.7
20240525121825 70 223 0.0 0.0 0.00 0.00 0.00 84 1009.7
20240525115826 69 192 0.0 5.0 0.00 0.00 0.00 84 1009.7
20240525115313 69 161 5.0 5.0 0.00 0.00 0.00 84 1009.7
20240525114822 69 188 5.0 5.0 0.00 0.00 0.00 84 1009.8
20240525114312 69 184 0.0 0.0 0.00 0.00 0.00 83 1009.9
20240525113821 69 188 0.0 0.0 0.00 0.00 0.00 83 1009.8
20240525113328 69 188 0.0 0.0 0.00 0.00 0.00 83 1009.7
20240525112326 69 190 0.0 1.0 0.00 0.00 0.00 83 1009.7
20240525110325 68 197 3.0 3.0 0.00 0.00 0.00 83 1009.9
20240525105327 68 204 2.0 2.0 0.00 0.00 0.00 84 1009.7
20240525104813 68 204 0.0 0.0 0.00 0.00 0.00 84 1009.6
20240525104326 68 187 0.0 0.0 0.00 0.00 0.00 84 1009.5
20240525103813 68 185 0.0 4.0 0.00 0.00 0.00 84 1009.4
20240525102812 67 176 0.0 0.0 0.00 0.00 0.00 83 1009.1
20240525101829 67 176 0.0 0.0 0.00 0.00 0.00 83 1009.0
20240525100809 67 176 0.0 0.0 0.00 0.00 0.00 82 1008.8
20240525100313 67 176 0.0 0.0 0.00 0.00 0.00 82 1008.8
20240525094824 67 176 0.0 0.0 0.00 0.00 0.00 81 1008.8
20240525094311 67 176 0.0 0.0 0.00 0.00 0.00 80 1008.8
20240525093820 67 177 0.0 0.0 0.00 0.00 0.00 80 1008.7
20240525093309 68 177 0.0 0.0 0.00 0.00 0.00 80 1008.8
20240525092310 68 178 6.0 6.0 0.00 0.00 0.00 79 1008.9
20240525090826 68 177 0.0 0.0 0.00 0.00 0.00 78 1008.9
20240525090331 68 177 0.0 0.0 0.00 0.00 0.00 78 1009.0
20240525085328 68 175 1.0 1.0 0.00 0.00 0.00 78 1009.0
20240525083817 68 190 0.0 0.0 0.00 0.00 0.00 76 1009.1
20240525083327 68 190 0.0 0.0 0.00 0.00 0.00 76 1009.3
20240525082814 68 190 0.0 0.0 0.00 0.00 0.00 75 1009.3
20240525082324 68 190 0.0 0.0 0.00 0.00 0.00 75 1009.5
20240525081831 68 190 0.0 0.0 0.00 0.00 0.00 75 1009.3
20240525080317 68 192 0.0 0.0 0.00 0.00 0.00 73 1009.2
20240525074321 68 163 0.0 0.0 0.00 0.00 0.00 70 1009.2
20240525073828 68 161 0.0 0.0 0.00 0.00 0.00 69 1009.2
20240525070810 68 104 0.0 0.0 0.00 0.00 0.00 67 1009.4
20240525070314 68 103 0.0 0.0 0.00 0.00 0.00 67 1009.4
20240525064812 68 98 0.0 0.0 0.00 0.00 0.00 65 1009.6
20240525060323 67 84 0.0 0.0 0.00 0.00 0.00 63 1009.8
20240525055831 67 79 0.0 0.0 0.00 0.00 0.00 63 1010.0
20240525054831 67 62 0.0 0.0 0.00 0.00 0.00 63 1010.2
20240525054317 67 62 0.0 0.0 0.00 0.00 0.00 62 1010.3
20240525053811 67 62 0.0 0.0 0.00 0.00 0.00 62 1010.4
20240525053323 67 62 0.0 0.0 0.00 0.00 0.00 62 1010.4
20240525052811 67 62 0.0 0.0 0.00 0.00 0.00 62 1010.6
20240525052320 67 62 0.0 0.0 0.00 0.00 0.00 62 1010.6
20240525051809 67 58 0.0 0.0 0.00 0.00 0.00 62 1010.6
20240525051318 67 58 0.0 0.0 0.00 0.00 0.00 61 1010.7
20240525050311 67 58 0.0 0.0 0.00 0.00 0.00 61 1010.8
20240525045821 67 58 0.0 0.0 0.00 0.00 0.00 61 1010.8
20240525045311 68 58 0.0 0.0 0.00 0.00 0.00 61 1010.8
20240525044316 67 58 0.0 0.0 0.00 0.00 0.00 60 1010.9
20240525043825 67 57 0.0 0.0 0.00 0.00 0.00 60 1010.9
20240525041823 67 55 0.0 0.0 0.00 0.00 0.00 60 1010.9
20240525041309 67 55 0.0 0.0 0.00 0.00 0.00 61 1010.9
20240525040328 67 55 0.0 0.0 0.00 0.00 0.00 60 1010.9
20240525035817 67 55 0.0 0.0 0.00 0.00 0.00 61 1010.9
20240525034310 66 53 0.0 0.0 0.00 0.00 0.00 62 1011.0
20240525033312 66 53 0.0 0.0 0.00 0.00 0.00 62 1011.2
20240525032821 66 53 0.0 0.0 0.00 0.00 0.00 63 1011.2
20240525032327 66 53 0.0 0.0 0.00 0.00 0.00 62 1011.0
20240525030815 66 53 0.0 0.0 0.00 0.00 0.00 63 1011.0
20240525030320 66 53 0.0 0.0 0.00 0.00 0.00 62 1011.0
20240525025321 66 53 0.0 0.0 0.00 0.00 0.00 62 1010.9
20240525023327 67 53 0.0 0.0 0.00 0.00 0.00 59 1011.0
20240525022813 67 53 0.0 0.0 0.00 0.00 0.00 59 1010.9
20240525021813 67 53 0.0 0.0 0.00 0.00 0.00 58 1010.8
20240525020814 67 53 0.0 0.0 0.00 0.00 0.00 56 1010.8
20240525020318 68 53 0.0 0.0 0.00 0.00 0.00 58 1010.7
20240525015319 68 53 0.0 0.0 0.00 0.00 0.00 54 1010.5
20240525014829 68 53 0.0 0.0 0.00 0.00 0.00 55 1010.6
20240525013826 68 53 0.0 0.0 0.00 0.00 0.00 54 1010.7
20240525012317 69 53 0.0 0.0 0.00 0.00 0.00 56 1010.6
20240525003829 72 53 0.0 0.0 0.00 0.00 0.00 51 1010.8
20240525002318 72 53 0.0 4.0 0.00 0.00 0.00 50 1010.9
20240525001318 73 53 0.0 0.0 0.00 0.00 0.00 49 1011.0
20240525000812 73 52 0.0 1.0 0.00 0.00 0.00 50 1011.1
20240524235811 73 52 0.0 0.0 0.00 0.00 0.00 51 1011.2
20240524235320 73 52 0.0 0.0 0.00 0.00 0.00 50 1011.3
20240524234827 73 48 0.0 0.0 0.00 0.00 0.00 51 1011.3